RISAT-2BR1

operational
NORAD ID: 44857 Int'l Des: 2019-089 Owner: ISRO Country: IN
LEOCIRCULAR

About RISAT-2BR1

Description loading...

Live Position

Loading 3D Globe...

Upcoming Passes

Altitude History

Altitude vs Time

uPlot chart will show altitude changes over time

Two-Line Element Set

1 44857U 19089F 26062.35018265 .00006102 00000-0 46710-3 0 9991
2 44857 36.9618 19.4771 0013684 30.4178 329.7356 15.01550620341285
Epoch: Mar 3, 2026 • Age: 31 hours

Current Status

Altitude 564.6 km
Velocity 7.58 km/s
Sub-Earth Point 15.41°N, 101.07°W
Launch Date Dec 11, 2019
Age 6.2 years
Type other

Technical Details

Classification Payload
Mass 628.00 kg
Dry Mass 628.00 kg
Total Mass 628.00 kg
Length 2.00 m
Diameter 1.00 m
Span 5.00 m
Shape Hex Cyl + 2 Pan + Dish
Manufacturer ISRO
Bus Type TechSar
Phase Status In Orbit
Owner/State ISRO/IN

Large Constellations

Loading constellations...